Location: Oroua River
(40.4333°S, 175.4333°E)
Time: 09:39:06
(UTC+00:00)

Daily predictions for brighter satellites

Satellite Brightness Start Highest point End
(mag) Time Altitude Azimuth Time Altitude Azimuth Time Altitude Azimuth
NOSS 3-1 (C) 3.8 12:00:37 10° SSW 12:05:53 56° S 12:05:53 56° S
Cosmos 1833 Rocket 4.0 12:03:20 10° SW 12:06:56 32° WSW 12:06:56 32° WSW
Cosmos 2285 Rocket 4.2 12:09:15 66° SSW 12:09:15 66° SSW 12:15:04 10° SSE
Cosmos 2369 Rocket 4.1 12:22:08 20° ESE 12:22:08 20° ESE 12:24:36 10° SE
ADEOS II 4.0 12:23:37 21° ESE 12:23:44 21° ESE 12:27:38 10° SSE
NOSS 3-1 (A) 3.8 12:35:19 10° SSW 12:40:39 55° S 12:40:39 55° S
Cosmos 1943 Rocket 3.0 12:45:27 48° SSW 12:45:27 48° SSW 12:49:42 10° SSE
Resurs 1-4 Rocket 3.0 12:46:47 47° SSE 12:46:47 47° SSE 12:50:55 10° S
ATLAS 3B R/B 4.0 12:47:16 10° SW 12:50:25 24° WSW 12:50:25 24° WSW
USA 267 3.8 13:02:38 46° WSW 13:02:38 46° WSW 13:07:17 10° SW
CZ-2D R/B 2.9 13:09:42 48° S 13:09:42 48° S 13:13:29 10° SSW
IDEFIX/ARIANE 42P 3.4 13:09:26 48° SSE 13:09:26 48° SSE 13:13:33 10° S
Lacrosse 4 Rocket 3.6 13:23:59 23° SSE 13:23:59 23° SSE 13:25:34 10° SSE
Cosmos 2297 4.3 13:23:51 50° SSW 13:23:51 50° SSW 13:28:34 10° SSE
Thor Agena Rocket 4.3 13:24:51 48° SSW 13:24:51 48° SSW 13:28:34 10° SSW
Cosmos 2098 Rocket 4.4 13:17:11 10° SSW 13:22:44 52° SW 13:22:44 52° SW
ISS -0.3 13:30:49 12° SSE 13:30:49 12° SSE 13:31:08 10° SE
NPP 4.4 13:31:38 45° SW 13:31:38 45° SW 13:35:31 10° SSW
ASTEX 1 4.4 13:26:57 10° S 13:30:18 42° SSW 13:30:18 42° SSW
Cosmos 1459 Rocket 4.4 13:35:10 50° E 13:35:10 50° E 13:41:03 10° SSE
Cosmos 2082 Rocket 4.4 13:32:57 10° SW 13:34:18 15° WSW 13:34:18 15° WSW
Lacrosse 5 rocket 3.2 13:42:27 30° SSW 13:42:27 30° SSW 13:45:51 10° SSE
MOS 1 Rocket 4.4 13:46:23 10° S 13:49:07 37° S 13:49:07 37° S
Cosmos 2100 Rocket 4.0 13:52:35 77° ENE 13:52:45 78° E 13:59:14 10° S
BREEZE-M DEB (TANK) 4.1 14:01:50 42° NE 14:02:00 42° ENE 14:13:46 10° ESE
Cosmos 1802 Rocket 4.1 14:02:28 64° ENE 14:02:58 67° E 14:09:13 10° SSE
ADEOS II 3.0 14:04:32 39° SW 14:04:32 39° SW 14:08:11 10° SSW
GEOS 3 Rocket 4.3 13:58:41 10° SSE 14:03:25 45° SW 14:03:25 45° SW
Cosmos 2369 Rocket 2.8 14:03:54 46° SW 14:03:54 46° SW 14:09:15 10° SSE
USA 229 DEB 4.0 13:57:31 10° SW 14:02:30 47° WSW 14:02:30 47° WSW
USA 229 3.9 13:57:33 10° SW 14:02:38 49° WSW 14:02:38 49° WSW
Cosmos 2112 Rocket 4.3 14:08:25 62° SSW 14:08:25 62° SSW 14:13:14 10° SSE
ATLAS 5 CENTAUR R/B 3.5 14:09:56 38° NE 14:11:23 41° ENE 14:18:08 10° SE
Cosmos 1371 Rocket 4.1 14:08:56 10° SSW 14:13:51 75° SSE 14:13:51 75° SSE
MSX 4.5 14:15:36 42° WSW 14:15:36 42° WSW 14:20:09 10° SSW
Cosmos 1680 Rocket 4.2 14:18:47 46° SW 14:18:47 46° SW 14:23:35 10° S
SL-4 R/B 3.9 14:22:52 27° ENE 14:22:52 27° ENE 14:25:49 10° ESE
BlueWalker 3 4.4 14:24:24 16° E 14:24:24 16° E 14:25:43 10° E
ALOS 2.7 14:23:45 58° E 14:23:55 59° ESE 14:28:34 10° S
Resurs 1-4 Rocket 4.2 14:27:51 15° WSW 14:27:51 15° WSW 14:29:22 10° SW
Okean 3 4.2 14:26:42 51° SE 14:26:42 51° SE 14:30:08 10° SSE
Cosmos 1674 4.2 14:27:03 33° ESE 14:27:03 33° ESE 14:29:42 10° SSE
Cosmos 2056 Rocket 3.5 14:23:33 10° SSW 14:28:42 76° WSW 14:28:42 76° WSW
Meteor 1-22 Rocket 4.3 14:23:39 10° S 14:29:12 69° E 14:30:04 58° NE
BREEZE-M DEB (TANK) 4.4 14:34:21 38° WSW 14:35:53 53° S 14:48:45 10° ESE
Cosmos 1703 Rocket 3.8 14:36:10 69° ESE 14:36:10 69° ESE 14:40:27 10° SSE
Cosmos 1908 Rocket 3.7 14:33:49 10° S 14:37:55 69° SE 14:37:55 69° SE
Cosmos 2016 Rocket 3.8 14:40:45 63° NW 14:41:38 74° W 14:47:50 10° S
In-Cosmos 22 4.2 14:42:31 58° NNE 14:43:32 73° E 14:49:11 10° SSE
Cosmos 1271 Rocket 3.8 14:40:52 10° S 14:43:20 39° S 14:43:20 39° S
MOZ.5/SAFIR/RUBIN 5/SL-8 3.8 14:43:27 10° S 14:48:08 68° WSW 14:48:08 68° WSW
FENGYUN 3A 3.8 14:51:52 55° W 14:51:52 55° W 14:57:17 10° SSW
Cosmos 1626 2.9 14:56:06 45° SSW 14:56:06 45° SSW 14:58:49 10° S
Meteor 1-21 4.2 14:59:12 47° N 15:00:53 80° E 15:06:35 10° SSE
Cosmos 1782 Rocket 3.6 15:00:03 10° S 15:04:29 75° E 15:05:22 54° NNE
ISS -0.7 15:04:15 10° SSW 15:05:53 13° S 15:07:30 10° SSE
Okean 1-7 3.7 15:07:03 42° WSW 15:07:03 42° WSW 15:11:02 10° S
PAYLOAD A 4.0 15:05:24 43° N 15:07:18 80° WNW 15:12:51 10° SSW
ARIANE 5 R/B 3.3 15:05:38 10° NE 15:10:31 51° ESE 15:15:31 10° S
Cosmos 1452 Rocket 3.6 15:05:14 10° SSW 15:10:35 76° ESE 15:14:50 16° NNE
IRS-1D 4.4 15:13:00 31° W 15:13:00 31° W 15:16:46 10° SSW
Cosmos 1484 Rocket 4.1 15:11:29 17° NE 15:13:55 38° ESE 15:17:24 10° S
SL-27 R/B 2.6 15:11:04 10° SSW 15:14:11 65° SE 15:14:11 65° SE
Cosmos 192 4.3 15:12:15 10° SSW 15:17:14 84° ESE 15:20:39 20° NNE
SL-16 R/B 2.8 15:12:31 10° SSE 15:18:46 66° ENE 15:22:35 24° N
CBERS-1 4.1 15:18:07 47° NW 15:19:06 54° W 15:24:12 10° SSW
BREEZE-M DEB (TANK) 4.4 15:19:02 12° SW 15:21:03 22° SSE 15:25:18 10° ESE
Lacrosse 5 rocket 4.3 15:20:06 10° SW 15:21:55 12° SSW 15:23:45 10° S
Cosmos 1908 3.0 15:19:01 10° S 15:22:51 75° W 15:23:03 72° NW
Cosmos 1707 4.1 15:23:38 26° WSW 15:23:38 26° WSW 15:26:29 10° SSW
Timation 1 Rocket 4.3 15:17:50 10° SSW 15:23:45 61° WNW 15:27:34 22° N
UNK 3.9 15:22:29 10° SSE 15:27:08 70° ENE 15:29:16 32° N
CZ-2C R/B 2.6 15:29:46 42° WNW 15:30:07 42° W 15:34:35 10° SSW
Meteor 2-14 Rocket 4.4 15:35:08 10° S 15:41:23 83° W 15:47:31 10° N
SAR-Lupe-2 4.2 15:44:37 36° W 15:44:37 36° W 15:47:48 10° SSW
Cosmos 2297 Rocket 3.0 15:38:51 10° SSW 15:44:28 53° ESE 15:50:01 10° NE
Cosmos 1464 Rocket 4.2 15:43:28 13° N 15:49:13 78° E 15:55:38 10° S
Cosmos 2227 Rocket 3.8 15:46:34 10° S 15:51:53 38° ESE 15:57:09 10° NE
YAOGAN 6 2.6 15:53:15 36° NNW 15:54:19 52° W 15:57:47 10° SSW
Cosmos 1953 2.5 15:50:24 10° S 15:54:31 75° E 15:58:33 10° NNE
Cosmos 1110 Rocket 4.0 15:50:41 10° SSW 15:55:54 59° WNW 16:01:06 10° N
ATLAS 5 CENTAUR R/B 3.3 15:51:19 23° WNW 15:56:03 50° SW 16:02:56 10° SSE
Sich 1 Rocket 3.7 15:51:52 10° S 15:56:21 77° E 16:00:46 10° NNE
Tiangong -2.1 15:55:52 42° WNW 15:56:37 56° NNW 15:59:47 10° ENE
Cosmos 2151 Rocket 4.1 15:52:26 10° S 15:56:54 61° E 16:01:16 10° NNE
CZ-2C R/B 3.0 15:53:16 17° N 15:56:58 54° W 16:01:44 10° SSW
Meteor 1-28 Rocket 3.8 15:55:32 10° S 15:59:02 39° WSW 16:00:12 30° WNW
Cosmos 1758 4.3 15:57:17 10° SSW 16:00:38 26° W 16:01:08 25° WNW
SL-4 R/B 2.8 15:58:10 23° W 16:00:56 54° SSW 16:05:33 10° SE
BlueWalker 3 2.4 15:59:11 28° WNW 16:01:06 56° SW 16:05:02 10° SE
ALOS 4.2 16:02:12 14° W 16:02:12 14° W 16:04:02 10° WSW
CZ-2D R/B 3.5 15:57:30 10° N 16:01:54 73° WNW 16:06:24 10° SSW
COSMOS 2455 4.2 15:59:47 10° N 16:05:12 36° ENE 16:10:39 10° SE
Cosmos 1656 3.9 16:03:18 22° NW 16:06:55 60° WSW 16:12:37 10° SSE
PSLV R/B 4.3 16:06:41 10° NNE 16:10:46 54° ESE 16:14:57 10° S
Cosmos 1980 Rocket 3.8 16:06:09 10° NNE 16:11:02 31° ENE 16:15:57 10° SE
Cosmos 2221 Rocket 3.6 16:08:26 15° NNW 16:12:09 73° W 16:16:43 10° S
Cosmos 44 3.9 16:09:43 13° NNW 16:14:23 63° ENE 16:19:38 10° SE
Envisat 3.5 16:10:43 13° NNW 16:14:54 39° W 16:19:43 10° SSW
Cosmos 1697 Rocket 2.9 16:10:35 11° NNW 16:15:58 73° ENE 16:21:39 10° SSE
Cosmos 2034 Rocket 4.1 16:10:19 10° N 16:16:36 87° E 16:22:56 10° S
Cosmos 1378 Rocket 3.5 16:14:15 12° NNW 16:18:17 76° W 16:22:44 10° S
Cosmos 2219 4.4 16:13:10 10° SSW 16:18:48 48° ESE 16:24:20 10° NE
YAOGAN 11 4.1 16:14:43 10° SSE 16:19:14 87° WSW 16:23:46 10° NNW
Meteor 1-29 4.3 16:16:34 10° NE 16:19:35 39° ESE 16:22:39 10° S
H-2A R/B 2.7 16:17:05 10° N 16:20:48 57° W 16:24:33 10° SSW
CZ-2C R/B 3.9 16:17:53 10° SSE 16:22:52 40° E 16:27:44 10° NNE
USA 281 4.1 16:19:01 10° SE 16:25:22 47° ENE 16:31:39 10° N
Helios 1B rocket 3.2 16:22:50 13° NNW 16:26:03 31° W 16:29:45 10° SW
ATLAS CENTAUR R/B 2.3 16:26:13 10° N 16:29:27 35° ENE 16:32:50 10° SE
Meteor 2-15 Rocket 4.5 16:29:06 10° NNW 16:35:15 73° W 16:41:30 10° S
Okean 2 Rocket 3.5 16:31:32 10° SSW 16:35:52 45° W 16:40:11 10° NNW
CZ-2C R/B 2.8 16:37:43 10° NNE 16:41:40 84° W 16:45:36 10° SSW
Cosmos 1300 3.8 16:38:40 10° SW 16:41:51 25° W 16:44:59 10° NW
ISS -0.9 16:41:17 10° SSW 16:43:40 17° SSE 16:46:02 10° ESE
Cosmos 1634 Rocket 4.4 16:38:20 10° N 16:44:33 71° E 16:50:54 10° SSE
Cosmos 1269 Rocket 4.2 16:40:26 10° NNW 16:45:41 62° WSW 16:51:01 10° SSE
Cosmos 1092 Rocket 4.2 16:42:27 10° S 16:48:52 85° E 16:55:15 10° N
ARIANE 5 R/B 3.9 16:46:26 10° NW 16:49:53 18° W 16:53:23 10° SW
Cosmos 1455 2.5 16:47:18 10° S 16:51:01 68° E 16:54:41 10° NNE
Cosmos 1455 Rocket 4.4 16:47:50 10° S 16:52:11 46° E 16:56:30 10° NNE
USA 290 4.2 16:49:35 10° NNE 16:52:27 29° ENE 16:55:21 10° SE
H-2A R/B 2.6 16:48:32 10° NNE 16:53:39 65° ESE 16:58:42 10° S
Cosmos 2195 Rocket 4.5 16:53:42 10° S 16:59:53 74° W 17:05:59 10° N
Meteor 1-24 Rocket 3.8 16:55:19 10° N 17:00:59 82° W 17:06:57 10° S
SL-16 R/B 4.0 16:57:15 10° SSW 17:01:45 21° WSW 17:06:13 10° WNW
